Estherville, IA

7:30 PM CDT on October 19, 2017 (GMT -0500)
Estherville Municipal

Weather History for KEST - December, 2013

Change the Weather History Date:

Sunday, December 8, 2013

  Actual Average Record
Temperature  
Mean Temperature 8 °F 21 °F  
Max Temperature 15 °F 30 °F 55 °F (1952)
Min Temperature 0 °F 12 °F -18 °F (1976)
Degree Days  
Heating Degree Days 57 44  
Month to date heating degree days 388 339  
Since 1 July heating degree days 2041 2058  
Cooling Degree Days 0 0  
Month to date cooling degree days 0 0  
Year to date cooling degree days 712 593  
Moisture  
Dew Point 7 °F    
Average Humidity 84    
Maximum Humidity 92    
Minimum Humidity 76    
Precipitation  
Precipitation T in 0.04 in 0.35 in (1966)
Month to date precipitation 0.06 0.38  
Sea Level Pressure  
Sea Level Pressure 30.18 in    
Wind  
Wind Speed 10 mph (SE)    
Max Wind Speed 18 mph    
Max Gust Speed 21 mph    
Visibility 3 miles    
Events Snow    
T = Trace of Precipitation, MM = Missing Value Source: NWS Daily Summary

Daily Weather History Graph

Daily Weather History Graph

Search for Another Location

Airport or City:

Trip Planner

Search our weather history database for the weather conditions in past years. The results will help you decide how hot, cold, wet, or windy it might be!

Date:

Astronomy

Dec. 08, 2013 Rise Set
Actual Time 7:39 AM CST 4:42 PM CST
Civil Twilight 7:06 AM CST 5:15 PM CST
Nautical Twilight 6:30 AM CST 5:51 PM CST
Astronomical Twilight 5:56 AM CST 6:25 PM CST
Moon 11:51 AM CST (12/8) 11:42 PM CST (12/8)
Length of Visible Light 10h 08m
Length of Day
9h 03m
Waxing Crescent, 40% of the Moon is Illuminated
Dec 8
Waxing Crescent
Dec 9
First Quarter
Dec 17
Full
Dec 25
Last Quarter
Jan 1
New

Hourly Weather History & Observations

Time (CST) Temp. Windchill Dew Point Humidity Pressure Visibility Wind Dir Wind Speed Gust Speed Precip Events Conditions
12:01 AM 7.0 °F -5.7 °F 3.0 °F 84% 30.46 in 2.5 mi SE 8.1 mph - 0.00 in Snow Light Snow
12:30 AM 8.1 °F -6.2 °F 3.9 °F 83% 30.44 in 2.0 mi SSE 10.4 mph - 0.00 in Snow Light Snow
12:37 AM 8.1 °F -5.3 °F 3.9 °F 83% 30.43 in 1.8 mi SE 9.2 mph - 0.00 in Snow Light Snow
12:52 AM 8.1 °F -7.7 °F 3.9 °F 83% 30.51 in 2.0 mi SSE 12.7 mph - 0.00 in Snow Light Snow
1:52 AM 8.1 °F -6.2 °F 3.9 °F 83% 30.47 in 2.5 mi SE 10.4 mph - 0.00 in Snow Light Snow
2:36 AM 8.1 °F -7.7 °F 3.9 °F 83% 30.35 in 2.0 mi SE 12.7 mph - 0.00 in Snow Light Snow
2:52 AM 8.1 °F -5.3 °F 3.9 °F 83% 30.44 in 2.0 mi SE 9.2 mph - 0.00 in Snow Light Snow
3:01 AM 8.1 °F -9.6 °F 5.0 °F 87% 30.34 in 1.8 mi SE 16.1 mph - 0.00 in Snow Light Snow
3:52 AM 8.1 °F -7.0 °F 5.0 °F 87% 30.40 in 1.5 mi SE 11.5 mph - 0.00 in Snow Light Snow
4:52 AM 8.1 °F -7.7 °F 3.9 °F 83% 30.38 in 2.5 mi SE 12.7 mph - 0.00 in Snow Light Snow
5:07 AM 8.1 °F -7.7 °F 3.9 °F 83% 30.28 in 1.8 mi SE 12.7 mph - 0.00 in Snow Light Snow
5:15 AM 8.1 °F -7.0 °F 3.9 °F 83% 30.28 in 2.0 mi SE 11.5 mph - 0.00 in Snow Light Snow
5:34 AM 8.1 °F -7.7 °F 3.9 °F 83% 30.26 in 3.0 mi SE 12.7 mph - 0.00 in Snow Light Snow
5:52 AM 8.1 °F -7.0 °F 5.0 °F 87% 30.35 in 3.0 mi ESE 11.5 mph - 0.00 in Snow Light Snow
6:10 AM 8.1 °F -7.7 °F 5.0 °F 87% 30.24 in 2.5 mi ESE 12.7 mph - 0.00 in Snow Light Snow
6:52 AM 8.1 °F -7.0 °F 5.0 °F 87% 30.32 in 1.8 mi SE 11.5 mph - 0.00 in Snow Light Snow
7:12 AM 8.1 °F -7.7 °F 5.0 °F 87% 30.22 in 2.0 mi SE 12.7 mph - 0.00 in Snow Light Snow
7:23 AM 9.0 °F -7.3 °F 5.0 °F 84% 30.22 in 3.0 mi SE 13.8 mph - 0.00 in Snow Light Snow
7:42 AM 9.0 °F -6.6 °F 5.0 °F 84% 30.22 in 2.5 mi SE 12.7 mph - 0.00 in Snow Light Snow
7:45 AM 9.0 °F -7.9 °F 5.0 °F 84% 30.22 in 1.8 mi SE 15.0 mph - 0.00 in Snow Light Snow
7:52 AM 9.0 °F -7.3 °F 5.0 °F 84% 30.31 in 1.2 mi SE 13.8 mph - 0.00 in Snow Light Snow
7:57 AM 9.0 °F -6.6 °F 5.0 °F 84% 30.21 in 0.8 mi SE 12.7 mph - 0.00 in Snow Light Snow
8:18 AM 9.0 °F -6.6 °F 5.0 °F 84% 30.20 in 1.0 mi SE 12.7 mph - 0.00 in Snow Light Snow
8:25 AM 9.0 °F -7.3 °F 5.0 °F 84% 30.19 in 1.5 mi ESE 13.8 mph - 0.00 in Snow Light Snow
8:33 AM 9.0 °F -5.9 °F 5.0 °F 84% 30.20 in 3.0 mi SE 11.5 mph - 0.00 in Snow Light Snow
8:41 AM 9.0 °F -5.9 °F 5.0 °F 84% 30.19 in 3.0 mi ESE 11.5 mph - 0.00 in   Overcast
8:52 AM 9.0 °F -5.9 °F 6.1 °F 88% 30.29 in 2.0 mi ESE 11.5 mph - 0.00 in Snow Light Snow
8:59 AM 10.0 °F -5.2 °F 6.1 °F 84% 30.19 in 1.5 mi SE 12.7 mph - 0.00 in Snow Light Snow
9:21 AM 10.0 °F -3.7 °F 6.1 °F 84% 30.19 in 2.5 mi ESE 10.4 mph - 0.00 in Snow Light Snow
9:29 AM 10.0 °F -5.2 °F 7.0 °F 87% 30.18 in 6.0 mi SE 12.7 mph - 0.00 in   Overcast
9:52 AM 10.0 °F -6.5 °F 6.1 °F 84% 30.27 in 5.0 mi SE 15.0 mph - 0.00 in   Overcast
10:09 AM 10.9 °F -5.9 °F 7.0 °F 84% 30.18 in 2.5 mi SE 16.1 mph - 0.00 in Snow Light Snow
10:30 AM 10.9 °F -4.7 °F 7.0 °F 84% 30.16 in 4.0 mi SE 13.8 mph - 0.00 in Snow Light Snow
10:44 AM 12.0 °F -4.0 °F 8.1 °F 84% 30.16 in 1.8 mi SE 15.0 mph - 0.00 in Snow Light Snow
10:50 AM 12.2 °F -4.3 °F 6.8 °F 79% 30.16 in 3.0 mi SE 16.1 mph - 0.00 in Snow Light Snow
10:52 AM 12.0 °F -4.0 °F 7.0 °F 80% 30.25 in 3.0 mi SE 15.0 mph - 0.00 in   Haze
11:07 AM 12.0 °F -4.5 °F 7.0 °F 80% 30.15 in 2.0 mi SE 16.1 mph - 0.00 in Snow Light Snow
11:12 AM 12.0 °F -4.5 °F 7.0 °F 80% 30.15 in 1.0 mi SE 16.1 mph - 0.00 in Snow Light Snow
11:27 AM 12.0 °F -4.5 °F 7.0 °F 80% 30.14 in 1.2 mi SE 16.1 mph - 0.00 in Snow Light Snow
11:35 AM 12.0 °F -4.0 °F 8.1 °F 84% 30.14 in 1.0 mi SE 15.0 mph - 0.00 in Snow Light Snow
11:52 AM 12.9 °F -2.8 °F 9.0 °F 84% 30.21 in 1.2 mi SE 15.0 mph - 0.00 in Snow Light Snow
12:05 PM 12.9 °F -2.8 °F 8.1 °F 81% 30.11 in 2.5 mi SE 15.0 mph - 0.00 in Snow Light Snow
12:15 PM 12.9 °F -1.6 °F 9.0 °F 84% 30.11 in 1.0 mi SE 12.7 mph - 0.00 in Snow Light Snow
12:30 PM 12.9 °F -2.2 °F 9.0 °F 84% 30.10 in 1.8 mi SE 13.8 mph - 0.00 in Snow Light Snow
12:52 PM 12.9 °F -0.9 °F 9.0 °F 84% 30.17 in 1.8 mi ESE 11.5 mph - 0.00 in Snow Light Snow
1:12 PM 14.0 °F 1.2 °F 9.0 °F 80% 30.07 in 1.0 mi SE 10.4 mph - 0.00 in Snow Light Snow
1:42 PM 14.0 °F 0.5 °F 10.0 °F 84% 30.05 in 1.2 mi SE 11.5 mph - 0.00 in Snow Light Snow
1:52 PM 14.0 °F 0.5 °F 10.0 °F 84% 30.13 in 1.0 mi SE 11.5 mph - 0.00 in Snow Light Snow
2:05 PM 14.0 °F 1.2 °F 9.0 °F 80% 30.04 in 0.8 mi SE 10.4 mph - 0.00 in Snow Light Snow
2:20 PM 14.0 °F 1.2 °F 10.0 °F 84% 30.03 in 1.0 mi SE 10.4 mph - 0.00 in Snow Light Snow
2:29 PM 14.0 °F 2.9 °F 10.0 °F 84% 30.03 in 1.2 mi SE 8.1 mph - 0.00 in Snow Light Snow
2:52 PM 14.0 °F 2.0 °F 10.0 °F 84% 30.10 in 2.0 mi SE 9.2 mph - 0.00 in Snow Light Snow
3:06 PM 14.0 °F 5.1 °F 10.0 °F 84% 30.01 in 3.0 mi ESE 5.8 mph - 0.00 in Snow Light Snow
3:17 PM 14.0 °F 3.9 °F 10.0 °F 84% 30.01 in 4.0 mi SE 6.9 mph - 0.00 in   Overcast
3:37 PM 14.0 °F 6.5 °F 10.0 °F 84% 30.02 in 2.5 mi SSE 4.6 mph - 0.00 in Snow Light Snow
3:41 PM 14.0 °F 5.1 °F 10.0 °F 84% 30.02 in 3.0 mi SSE 5.8 mph - 0.00 in Snow Light Snow
3:49 PM 14.0 °F 6.5 °F 10.4 °F 86% 30.02 in 3.0 mi SE 4.6 mph - 0.00 in Snow Light Snow
3:52 PM 14.0 °F 6.5 °F 10.0 °F 84% 30.11 in 3.0 mi SE 4.6 mph - 0.00 in Snow Light Snow
4:13 PM 14.0 °F - 10.0 °F 84% 30.03 in 2.5 mi Calm Calm - 0.00 in Snow Light Snow
4:27 PM 14.0 °F - 10.0 °F 84% 30.03 in 2.0 mi Calm Calm - 0.00 in Snow Light Snow
4:49 PM 14.0 °F - 10.4 °F 86% 30.03 in 1.8 mi Calm Calm - 0.00 in Snow Light Snow
4:52 PM 14.0 °F - 10.9 °F 88% 30.11 in 1.8 mi Calm Calm - 0.00 in Snow Light Snow
4:58 PM 14.0 °F - 10.9 °F 88% 30.03 in 2.5 mi Calm Calm - 0.00 in Snow Light Snow
5:07 PM 14.0 °F - 10.9 °F 88% 30.02 in 4.0 mi Calm Calm - 0.00 in Snow Light Snow
5:52 PM 14.0 °F - 10.0 °F 84% 30.09 in 4.0 mi Calm Calm - 0.00 in Snow Light Snow
6:52 PM 12.9 °F 5.2 °F 10.0 °F 88% 30.10 in 9.0 mi NW 4.6 mph - 0.00 in   Overcast
7:52 PM 12.9 °F 5.2 °F 10.0 °F 88% 30.10 in 7.0 mi NW 4.6 mph - N/A   Overcast
8:52 PM 12.9 °F 3.8 °F 9.0 °F 84% 30.11 in 10.0 mi WNW 5.8 mph - N/A   Overcast
9:52 PM 12.9 °F 2.6 °F 9.0 °F 84% 30.11 in 9.0 mi West 6.9 mph - N/A   Overcast
10:52 PM 5.0 °F -9.1 °F 1.9 °F 87% 30.11 in 9.0 mi WNW 9.2 mph - N/A   Partly Cloudy
11:52 PM 3.0 °F -13.3 °F -0.0 °F 87% 30.12 in 8.0 mi WNW 11.5 mph - N/A   Clear